This is the latest recevied weather packets stored in our database for station/object TA2LKM-11. If no packets are shown the sender has not sent any weather packets the latest 10 day(s).
| Time | Temp. | Humidity | Pressure | Rain* | Wind** | Luminosity | Snow |
|---|---|---|---|---|---|---|---|
| 1787996205 | 33.33° C | 100% | 764.9 hPa | - | - | - | - |
| 1787995304 | 33.33° C | 100% | 764.9 hPa | - | - | - | - |
| 1787994403 | 33.33° C | 100% | 764.9 hPa | - | - | - | - |
| 1787993502 | 33.33° C | 100% | 764.9 hPa | - | - | - | - |
| 1787992602 | 33.33° C | 100% | 764.9 hPa | - | - | - | - |
| 1787991374 | 30.56° C | 41% | 1017.4 hPa | - | - | - | - |
| 1787990473 | 30.56° C | 42% | 1017.6 hPa | - | - | - | - |
| 1787989573 | 30.56° C | 41% | 1017.7 hPa | - | - | - | - |
| 1787988672 | 30° C | 43% | 1017.6 hPa | - | - | - | - |
| 1787987771 | 29.44° C | 44% | 1017.6 hPa | - | - | - | - |
| 1787986870 | 29.44° C | 42% | 1017.4 hPa | - | - | - | - |
| 1787985970 | 29.44° C | 42% | 1017.2 hPa | - | - | - | - |
| 1787985069 | 34.44° C | 35% | 1017.9 hPa | - | - | - | - |
| 1787984168 | 36.11° C | 32% | 1018.1 hPa | - | - | - | - |
| 1787983268 | 42.22° C | 24% | 1018.4 hPa | - | - | - | - |
| 1787982367 | 42.22° C | 24% | 1018.6 hPa | - | - | - | - |
| 1787981466 | 38.89° C | 29% | 1018.5 hPa | - | - | - | - |
| 1787980565 | 39.44° C | 31% | 1018.7 hPa | - | - | - | - |
| 1787979665 | 35.56° C | 33% | 1018.7 hPa | - | - | - | - |
| 1787978763 | 32.78° C | 36% | 1018.4 hPa | - | - | - | - |
| 1787977862 | 27.78° C | 46% | 1018.3 hPa | - | - | - | - |
| 1787976962 | 21.11° C | 61% | 1017.8 hPa | - | - | - | - |
| 1787976061 | 20.56° C | 61% | 1017.5 hPa | - | - | - | - |
| 1787975177 | 33.33° C | 100% | 764.9 hPa | - | - | - | - |
| 1787974276 | 33.33° C | 100% | 764.9 hPa | - | - | - | - |
* Rain since midnight (hover to see other rain measurements)
** Current wind speed in m/s (hover to see current wind gust speed)